Regional Weather Roundup
Issued by NWS

Home | Current Version | Previous Version | Text Only | Print | Product List | Glossary Off
Versions: 1 2 3 4 5 6 7 8 9 10 11 12 13 14 15 16 17 18 19 20 21 22 23 24 25 26 27 28 29 30 31 32 33 34 35 36 37 38 39 40 41 42 43 44 45 46 47 48 49 50

000
ASUS45 KPSR 312010
RWRAZ

ARIZONA REGIONAL HOURLY WEATHER ROUNDUP
NATIONAL WEATHER SERVICE PHOENIX AZ
100 PM MST FRI OCT 31 2014

NOTE: FAIR INDICATES FEW OR NO CLOUDS BELOW 12,000 FEET WITH NO
SIGNIFICANT WEATHER AND/OR OBSTRUCTIONS TO VISIBILITY.

AZZ001>003-036-312100-
NORTHWEST ARIZONA

CITY           SKY/WX    TMP DP  RH WIND       PRES   REMARKS
BULLHEAD CITY  SUNNY     86  36  16 SW7       29.81F
KINGMAN        SUNNY     81  36  19 SW17G25   29.93F
$$

AZZ004>008-015-016-018-312100-
NORTH CENTRAL ARIZONA

CITY           SKY/WX    TMP DP  RH WIND       PRES   REMARKS
GRAND CANYON   MOSUNNY   70  33  25 SW18G30   30.13F
PRESCOTT       MOSUNNY   75  36  24 SE18G28   30.05F
FLAGSTAFF      SUNNY     66  36  32 SW18G24   30.18F
PAYSON         SUNNY     72  37  28 VRB7G15   30.12F
PAGE           MOSUNNY   67  24  19 CALM      30.05F
$$

AZZ009>014-017-312100-
NORTHEAST ARIZONA

CITY           SKY/WX    TMP DP  RH WIND       PRES   REMARKS
WINSLOW        MOSUNNY   79  38  22 SE13G21   30.07F
SAINT JOHNS    MOSUNNY   75  39  27 S18       30.12F
WINDOW ROCK    PTSUNNY   71  31  22 S9G18     30.21F
SHOW LOW       MOSUNNY   68  37  32 S18G29    30.19F
$$

AZZ023-312100-
GREATER PHOENIX AREA

CITY           SKY/WX    TMP DP  RH WIND       PRES   REMARKS
PHOENIX        MOSUNNY   91  43  18 S10       29.83F
BUCKEYE          N/A     84  41  21 S5        29.86F
GLENDALE       MOSUNNY   88  43  20 SE7       29.86F
LUKE AFB       SUNNY     87  43  21 SE2       29.84F
DEER VALLEY    SUNNY     88  41  19 S10G17    29.85F
SCOTTSDALE     SUNNY     88  44  21 S6        29.87F
MESA-FALCON    MOSUNNY   91  41  17 S17       29.85
MESA-GATEWAY   MOSUNNY   90  45  20 SE17      29.87F
CHANDLER       MOSUNNY   90  46  22 E9        29.85F
$$

AZZ027-028-312100-
SOUTHWEST MARICOPA COUNTY AND PINAL COUNTY

CITY           SKY/WX    TMP DP  RH WIND       PRES   REMARKS
CASA GRANDE    SUNNY     86  46  25 CALM      29.87F
GILA BEND      CLEAR     88  43  20 W7        29.85F
$$

AZZ503-504-507>509-312100-
SOUTHEAST ARIZONA

CITY           SKY/WX    TMP DP  RH WIND       PRES   REMARKS
TUCSON         MOSUNNY   89  43  20 E10G23    29.95F
DAVIS-MONTHAN  SUNNY     87  45  22 E13       29.93F
RYAN FIELD       N/A     91  46  21 E17       29.92F
NOGALES        MOSUNNY   83  45  26 S9        30.02F
SIERRA VISTA   PTSUNNY   79  45  29 SE15G22   30.08F
DOUGLAS        MOSUNNY   82  45  27 SE16      30.06F
SAFFORD        SUNNY     80  45  28 SE14      30.06F
$$

AZZ020-021-025-026-031-312100-
SOUTHWEST ARIZONA

CITY           SKY/WX    TMP DP  RH WIND       PRES   REMARKS
YUMA           MOSUNNY   89  53  29 S14       29.79F
$$

CAZ031-033-041-043-047-048-061-312100-
SOUTHERN CALIFORNIA

CITY           SKY/WX    TMP DP  RH WIND       PRES   REMARKS
DOWNTOWN L.A.  CLOUDY    69  57  65 MISG      29.92F
L.A. AIRPORT   CLOUDY    66  57  72 VRB5      29.91F
SAN DIEGO      PTSUNNY   71  57  61 NW6       29.93F
BURBANK        CLOUDY    68  53  58 S6        29.92F
ONTARIO        CLOUDY    68  52  56 VRB6      29.93F
RIVERSIDE      CLOUDY    68  53  58 MISG      29.92F
PALM SPRINGS   MOSUNNY   83  43  24 VRB3      29.83F
EL CENTRO NAS  SUNNY     85  45  24 VRB3      29.78F
IMPERIAL       SUNNY     85  47  26 VRB5      29.78F
BLYTHE         SUNNY     86  43  22 S12       29.80F
NEEDLES        SUNNY     88  35  15 E7        29.81F
$$

NVZ020-UTZ003-312100-
SOUTHERN NEVADA-UTAH

CITY           SKY/WX    TMP DP  RH WIND       PRES   REMARKS
LAS VEGAS      MOSUNNY   81  32  17 VRB5      29.81F
SALT LAKE CITY MOSUNNY   74  20  13 S20G30    29.90F
$$

NMZ009-TXZ055-312100-
NEW MEXICO-WEST TEXAS

CITY           SKY/WX    TMP DP  RH WIND       PRES   REMARKS
ALBUQUERQUE    MOSUNNY   65  29  25 S7        30.28F
EL PASO        MOSUNNY   74  43  32 SE16G25   30.22F
$$


........................KEY........................
SKY/WX - SKY CONDITION/WEATHER
TMP    - TEMPERATURE IN FAHRENHEIT
DP     - DEW POINT IN FAHRENHEIT
RH     - RELATIVE HUMIDITY IN PERCENT
WIND   - DIRECTION AND SPEED IN MILES PER HOUR (MPH)
VRB    - VARIABLE WIND DIRECTION
PRES   - MEAN SEA LEVEL PRESSURE IN INCHES OF MERCURY
         F - FALLING PRESSURE   R - RISING PRESSURE
         S - STEADY PRESSURE
VSB    - VISIBILITY IN MILES
HX     - HEAT INDEX IN FAHRENHEIT
WCI    - WIND CHILL INDEX IN FAHRENHEIT
TC     - TEMPERATURE IN CELSIUS WHICH IS ALSO KNOWN AS
         TEMPERATURE IN CENTIGRADE
AFB    - AIR FORCE BASE
         LUKE AFB IS LUKE AIR FORCE BASE
         DAVIS-MONTHAN IS DAVIS-MONTHAN AIR FORCE BASE
NAS    - NAVAL AIR STATION
         EL CENTRO NAS IS EL CENTRO NAVAL AIR STATION
N/A    - NOT AVAILABLE



USA.gov is the U.S. government's official web portal to all federal, state and local government web resources and services.